Home   Weather   Santa Cruz   Past weeks

Flag for USA Past Weather in Santa Cruz, California, USA — Yesterday and Last 2 Weeks

64 °F


Feels Like: 64 °F
Forecast: 57 / 64 °F
Wind: 5 mph from North

Location: Watsonville Municipal Airport

Current Time: Oct 24, 2016 at 1:15:07 PM

Latest Report: Oct 24, 2016 at 11:53 AM

Visibility: 10 mi

Pressure: 30.03 "Hg

Humidity: 70%

Dew Point: 54 °F

Location of Santa CruzLocation

Past Weather in Santa Cruz — Graph


Santa Cruz Temperature Yesterday

Maximum temperature yesterday: 62 °F (at 2:53 PM)
Minimum temperature yesterday: 49 °F (at 4:53 AM)
Average temperature yesterday: 56 °F

High & Low Weather Summary for the Past Weeks

High82 °F (Oct 20, 2:53 PM)100% (Oct 9, 7:53 PM)30.19 "Hg (Oct 9, 7:53 PM)
Low47 °F (Oct 10, 4:53 AM)18% (Oct 9, 12:53 PM)29.80 "Hg (Oct 16, 3:53 PM)
Average60 °F83%30.01 "Hg
* Reported Oct 9 11:53 AM — Oct 24 11:53 AM, Santa Cruz, Weather by CustomWeather, © 2016

Note: Actual official high and low records may vary slightly from our data, if they occured in-between our weather recording intervals... More about our weather records


Santa Cruz Weather History for the Previous 24 Hours

Scroll right to see more
Time TempWeatherWind HumidityBarometerVisibility
11:53 AM
Mon, Oct 24
64 °FSunny.5 mph70%30.03 "Hg10 mi
10:53 AM65 °FSunny.12 mph70%30.02 "Hg10 mi
9:53 AM62 °FSunny.5 mph78%30.01 "Hg10 mi
8:53 AM61 °FPartly sunny.No wind81%30.00 "Hg10 mi
7:53 AM58 °FPartly sunny.3 mph97%29.98 "Hg10 mi
6:53 AM58 °FOvercast.3 mph97%29.98 "Hg10 mi
5:53 AM57 °FPassing clouds.5 mph100%29.97 "Hg10 mi
4:53 AM59 °FOvercast.7 mph93%29.96 "Hg10 mi
3:53 AM59 °FOvercast.5 mph90%29.94 "Hg10 mi
2:53 AM59 °FMostly cloudy.7 mph90%29.96 "Hg10 mi
1:53 AM58 °FPassing clouds.7 mph93%29.96 "Hg10 mi
12:53 AM57 °FClear.5 mph93%29.94 "Hg10 mi
11:53 PM
Sun, Oct 23
58 °FPassing clouds.6 mph93%29.94 "Hg10 mi
10:53 PM58 °FClear.8 mph93%29.94 "Hg10 mi
9:53 PM58 °FPassing clouds.5 mph93%29.93 "Hg10 mi
8:53 PM59 °FPassing clouds.8 mph90%29.93 "Hg10 mi
7:53 PM60 °FOvercast.7 mph86%29.93 "Hg10 mi
6:53 PM60 °FPassing clouds.7 mph83%29.92 "Hg10 mi
5:53 PM60 °FPassing clouds.8 mph80%29.91 "Hg10 mi
4:53 PM61 °FPassing clouds.8 mph78%29.92 "Hg10 mi
3:53 PM62 °FPartly sunny.10 mph75%29.92 "Hg10 mi
2:53 PM62 °FOvercast.9 mph75%29.94 "Hg10 mi
1:53 PM60 °FPartly sunny.7 mph80%29.95 "Hg10 mi
Weather by CustomWeather, © 2016

See weather overviewHow to use our weather pages